Location: Kaiser
(34.0939°N, 117.4889°W)
Time: 03:12:33
(UTC+00:00)

Cosmos 1992 Rocket - Pass Details

Date: 29 October 2020
Orbit: 759 x 765 km, 74.0° (Epoch: 26 November)

Event Time Altitude Azimuth Distance (km) Brightness Sun altitude
Exits shadow 12:59:10 - 335° (NNW) 3,023 6.8 -14.7°
Reaches altitude 10° 13:01:05 10° 330° (NNW) 2,296 6.1 -14.3°
Maximum altitude 13:06:03 47° 258° (WSW) 1,004 4.2 -13.3°
Drops below altitude 10° 13:11:00 10° 185° (S) 2,287 6.5 -12.3°
Sets 13:13:26 0° 180° (S) 3,210 7.3 -11.8°
